Location: Capannuccia
(43.7000°N, 11.3000°E)
Time: 21:41:55
(UTC+00:00)

Envisat - Pass Details

Date: 01 August 2021
Orbit: 764 x 766 km, 98.2° (Epoch: 17 September)

Event Time Altitude Azimuth Distance (km) Brightness Sun altitude
Rises 03:04:44 0° 34° (NE) 3,241 7.8 -9.9°
Reaches altitude 10° 03:08:41 10° 65° (ENE) 2,307 7.0 -9.4°
Maximum altitude 03:10:37 12° 88° (E) 2,161 6.3 -9.1°
Drops below altitude 10° 03:12:33 10° 110° (ESE) 2,300 6.0 -8.8°
Sets 03:16:27 0° 141° (SE) 3,219 6.3 -8.2°
